Time,TemperatureF,DewpointF,PressureIn,WindDirection,WindDirectionDegrees,WindSpeedMPH,WindSpeedGustMPH,Humidity,HourlyPrecipIn,Conditions,Clouds,dailyrainin,SoftwareType,DateUTC
2011-11-10 00:02:00,28.0,21.4,30.31,SE,135,0.0,0.0,76,0.00,,,0.00,open2300-1.11,2011-11-10 07:02:00,
2011-11-10 00:18:00,28.2,21.6,30.31,SSE,157,0.0,5.1,76,0.00,,,0.00,open2300-1.11,2011-11-10 07:18:00,
2011-11-10 00:33:00,28.0,21.1,30.31,ENE,67,3.1,3.1,75,0.00,,,0.00,open2300-1.11,2011-11-10 07:33:00,
2011-11-10 00:47:00,28.0,21.4,30.30,SE,135,0.0,7.8,76,0.00,,,0.00,open2300-1.11,2011-11-10 07:47:00,
2011-11-10 01:02:00,27.7,21.1,30.30,ESE,112,0.0,6.5,76,0.00,,,0.00,open2300-1.11,2011-11-10 08:02:00,
2011-11-10 01:18:00,27.7,21.1,30.30,SSE,157,0.0,2.5,76,0.00,,,0.00,open2300-1.11,2011-11-10 08:18:00,
2011-11-10 01:32:00,27.7,21.1,30.30,SSE,157,0.7,0.7,76,0.00,,,0.00,open2300-1.11,2011-11-10 08:32:00,
2011-11-10 01:48:00,27.7,20.8,30.30,East,90,0.0,1.6,75,0.00,,,0.00,open2300-1.11,2011-11-10 08:48:00,
2011-11-10 02:02:00,28.0,20.8,30.30,ENE,67,4.2,7.2,74,0.00,,,0.00,open2300-1.11,2011-11-10 09:02:00,
2011-11-10 02:17:00,28.2,20.7,30.31,East,90,0.0,4.2,73,0.00,,,0.00,open2300-1.11,2011-11-10 09:17:00,
2011-11-10 02:33:00,27.7,20.1,30.31,ENE,67,2.9,2.9,73,0.00,,,0.00,open2300-1.11,2011-11-10 09:33:00,
2011-11-10 02:47:00,28.0,20.2,30.31,ENE,67,3.1,3.1,72,0.00,,,0.00,open2300-1.11,2011-11-10 09:47:00,
2011-11-10 03:02:00,27.5,19.6,30.31,East,90,1.8,3.1,72,0.00,,,0.00,open2300-1.11,2011-11-10 10:02:00,
2011-11-10 03:17:00,27.1,19.3,30.31,East,90,5.8,5.8,72,0.00,,,0.00,open2300-1.11,2011-11-10 10:17:00,
2011-11-10 03:33:00,27.1,19.3,30.30,East,90,0.0,5.8,72,0.00,,,0.00,open2300-1.11,2011-11-10 10:33:00,
2011-11-10 03:47:00,26.6,18.8,30.30,East,90,0.0,0.0,72,0.00,,,0.00,open2300-1.11,2011-11-10 10:47:00,
2011-11-10 04:02:00,26.4,18.6,30.30,ESE,112,0.0,4.0,72,0.00,,,0.00,open2300-1.11,2011-11-10 11:02:00,
2011-11-10 04:17:00,26.4,18.9,30.30,ENE,67,0.0,7.6,73,0.00,,,0.00,open2300-1.11,2011-11-10 11:17:00,
2011-11-10 04:32:00,26.2,18.4,30.30,East,90,6.3,7.2,72,0.00,,,0.00,open2300-1.11,2011-11-10 11:32:00,
2011-11-10 04:48:00,26.4,18.6,30.30,ENE,67,2.9,6.3,72,0.00,,,0.00,open2300-1.11,2011-11-10 11:48:00,
2011-11-10 05:03:00,26.2,18.4,30.30,ESE,112,2.0,2.9,72,0.00,,,0.00,open2300-1.11,2011-11-10 12:03:00,
2011-11-10 05:17:00,26.2,18.1,30.29,East,90,1.8,6.3,71,0.00,,,0.00,open2300-1.11,2011-11-10 12:17:00,
2011-11-10 05:32:00,26.1,17.9,30.29,ENE,67,6.7,6.7,71,0.00,,,0.00,open2300-1.11,2011-11-10 12:32:00,
2011-11-10 05:48:00,26.1,17.9,30.29,East,90,1.1,8.5,71,0.00,,,0.00,open2300-1.11,2011-11-10 12:48:00,
2011-11-10 06:02:00,25.9,17.7,30.30,East,90,0.0,6.7,71,0.00,,,0.00,open2300-1.11,2011-11-10 13:02:00,
2011-11-10 06:17:00,26.2,17.8,30.30,East,90,0.0,7.8,70,0.00,,,0.00,open2300-1.11,2011-11-10 13:17:00,
2011-11-10 06:32:00,25.9,17.4,30.31,ESE,112,0.0,4.5,70,0.00,,,0.00,open2300-1.11,2011-11-10 13:32:00,
2011-11-10 06:47:00,24.1,16.0,30.30,SSE,157,0.0,0.0,71,0.00,,,0.00,open2300-1.11,2011-11-10 13:47:00,
2011-11-10 07:02:00,24.1,16.3,30.31,SE,135,0.0,0.0,72,0.00,,,0.00,open2300-1.11,2011-11-10 14:02:00,
2011-11-10 07:17:00,24.1,16.3,30.31,South,180,0.0,0.0,72,0.00,,,0.00,open2300-1.11,2011-11-10 14:17:00,
2011-11-10 07:33:00,24.4,16.6,30.31,SE,135,0.0,0.0,72,0.00,,,0.00,open2300-1.11,2011-11-10 14:33:00,
2011-11-10 07:48:00,25.3,17.5,30.32,SE,135,0.0,0.0,72,0.00,,,0.00,open2300-1.11,2011-11-10 14:48:00,
2011-11-10 08:02:00,26.4,18.3,30.33,SE,135,0.0,2.2,71,0.00,,,0.00,open2300-1.11,2011-11-10 15:02:00,
2011-11-10 08:17:00,27.7,18.9,30.32,East,90,0.0,1.1,69,0.00,,,0.00,open2300-1.11,2011-11-10 15:17:00,
2011-11-10 08:32:00,29.5,19.8,30.32,SE,135,0.0,0.0,67,0.00,,,0.00,open2300-1.11,2011-11-10 15:32:00,
2011-11-10 08:47:00,31.8,21.4,30.32,SSE,157,0.0,0.0,65,0.00,,,0.00,open2300-1.11,2011-11-10 15:47:00,
2011-11-10 09:02:00,34.3,22.6,30.32,SSE,157,0.0,0.0,62,0.00,,,0.00,open2300-1.11,2011-11-10 16:02:00,
2011-11-10 09:17:00,37.0,23.6,30.32,East,90,1.1,1.1,58,0.00,,,0.00,open2300-1.11,2011-11-10 16:17:00,
2011-11-10 09:33:00,39.6,24.6,30.31,East,90,0.0,0.0,55,0.00,,,0.00,open2300-1.11,2011-11-10 16:33:00,
2011-11-10 09:47:00,41.5,24.3,30.32,SE,135,0.0,0.0,50,0.00,,,0.00,open2300-1.11,2011-11-10 16:47:00,
2011-11-10 10:02:00,44.6,26.6,30.32,SW,225,0.0,0.0,49,0.00,,,0.00,open2300-1.11,2011-11-10 17:02:00,
2011-11-10 10:17:00,46.2,27.0,30.31,West,270,0.0,0.0,47,0.00,,,0.00,open2300-1.11,2011-11-10 17:17:00,
2011-11-10 10:33:00,48.4,27.8,30.31,West,270,0.0,0.0,45,0.00,,,0.00,open2300-1.11,2011-11-10 17:33:00,
2011-11-10 10:47:00,49.3,28.1,30.30,WNW,292,0.0,2.2,44,0.00,,,0.00,open2300-1.11,2011-11-10 17:47:00,
2011-11-10 11:02:00,50.5,28.2,30.29,West,270,0.0,1.8,42,0.00,,,0.00,open2300-1.11,2011-11-10 18:02:00,
2011-11-10 11:17:00,50.9,28.0,30.29,NNW,337,0.0,0.0,41,0.00,,,0.00,open2300-1.11,2011-11-10 18:17:00,
2011-11-10 11:33:00,52.0,28.4,30.28,WSW,247,1.8,2.7,40,0.00,,,0.00,open2300-1.11,2011-11-10 18:33:00,
2011-11-10 11:47:00,52.2,27.9,30.27,WSW,247,4.5,6.0,39,0.00,,,0.00,open2300-1.11,2011-11-10 18:47:00,
2011-11-10 12:02:00,52.9,29.2,30.26,SW,225,0.0,4.5,40,0.00,,,0.00,open2300-1.11,2011-11-10 19:02:00,
2011-11-10 12:18:00,54.1,30.3,30.25,WNW,292,7.6,8.5,40,0.00,,,0.00,open2300-1.11,2011-11-10 19:18:00,
2011-11-10 12:33:00,54.7,30.8,30.25,WNW,292,0.0,7.6,40,0.00,,,0.00,open2300-1.11,2011-11-10 19:33:00,
2011-11-10 12:48:00,54.9,31.5,30.25,WNW,292,3.6,7.6,41,0.00,,,0.00,open2300-1.11,2011-11-10 19:48:00,
2011-11-10 13:02:00,55.2,31.9,30.23,West,270,0.0,7.8,41,0.00,,,0.00,open2300-1.11,2011-11-10 20:02:00,
2011-11-10 13:18:00,55.2,31.9,30.23,WSW,247,2.0,9.6,41,0.00,,,0.00,open2300-1.11,2011-11-10 20:18:00,
2011-11-10 13:32:00,54.7,31.4,30.23,West,270,3.6,4.9,41,0.00,,,0.00,open2300-1.11,2011-11-10 20:32:00,
2011-11-10 13:47:00,56.3,32.8,30.22,West,270,3.4,4.7,41,0.00,,,0.00,open2300-1.11,2011-11-10 20:47:00,
2011-11-10 14:02:00,58.6,33.7,30.21,WNW,292,0.0,6.5,39,0.00,,,0.00,open2300-1.11,2011-11-10 21:02:00,
2011-11-10 14:19:00,61.3,33.9,30.20,WNW,292,0.0,1.8,36,0.00,,,0.00,open2300-1.11,2011-11-10 21:19:00,
2011-11-10 14:32:00,62.4,34.2,30.20,WNW,292,0.0,2.7,35,0.00,,,0.00,open2300-1.11,2011-11-10 21:32:00,
2011-11-10 14:47:00,61.9,33.7,30.19,WNW,292,1.6,1.8,35,0.00,,,0.00,open2300-1.11,2011-11-10 21:47:00,
2011-11-10 15:03:00,61.0,32.9,30.19,WSW,247,0.0,4.2,35,0.00,,,0.00,open2300-1.11,2011-11-10 22:03:00,
2011-11-10 15:17:00,60.1,32.8,30.18,WSW,247,1.8,4.0,36,0.00,,,0.00,open2300-1.11,2011-11-10 22:17:00,
2011-11-10 15:32:00,59.5,32.3,30.18,SW,225,0.0,1.8,36,0.00,,,0.00,open2300-1.11,2011-11-10 22:32:00,
2011-11-10 15:47:00,58.6,32.3,30.17,WNW,292,0.0,2.7,37,0.00,,,0.00,open2300-1.11,2011-11-10 22:47:00,
2011-11-10 16:03:00,57.4,31.1,30.16,West,270,0.0,0.0,37,0.00,,,0.00,open2300-1.11,2011-11-10 23:03:00,
2011-11-10 16:17:00,57.4,31.8,30.17,West,270,0.0,0.2,38,0.00,,,0.00,open2300-1.11,2011-11-10 23:17:00,
2011-11-10 16:33:00,55.4,30.8,30.16,West,270,0.0,0.0,39,0.00,,,0.00,open2300-1.11,2011-11-10 23:33:00,
2011-11-10 16:47:00,52.5,30.0,30.16,West,270,0.0,0.0,42,0.00,,,0.00,open2300-1.11,2011-11-10 23:47:00,
2011-11-10 17:02:00,50.2,29.0,30.16,West,270,0.0,0.0,44,0.00,,,0.00,open2300-1.11,2011-11-11 00:02:00,
2011-11-10 17:17:00,46.8,26.9,30.15,West,270,0.0,0.0,46,0.00,,,0.00,open2300-1.11,2011-11-11 00:17:00,
2011-11-10 17:32:00,44.1,26.1,30.16,West,270,0.0,0.0,49,0.00,,,0.00,open2300-1.11,2011-11-11 00:32:00,
2011-11-10 17:49:00,41.7,24.9,30.15,West,270,0.0,0.0,51,0.00,,,0.00,open2300-1.11,2011-11-11 00:49:00,
2011-11-10 18:02:00,38.7,23.8,30.15,West,270,0.0,0.0,55,0.00,,,0.00,open2300-1.11,2011-11-11 01:02:00,
2011-11-10 18:17:00,36.9,23.5,30.15,West,270,0.0,0.0,58,0.00,,,0.00,open2300-1.11,2011-11-11 01:17:00,
2011-11-10 18:32:00,36.0,23.5,30.15,West,270,0.0,0.0,60,0.00,,,0.00,open2300-1.11,2011-11-11 01:32:00,
2011-11-10 18:48:00,34.9,22.8,30.16,West,270,0.0,0.0,61,0.00,,,0.00,open2300-1.11,2011-11-11 01:48:00,
2011-11-10 19:02:00,33.6,22.3,30.15,West,270,0.0,0.0,63,0.00,,,0.00,open2300-1.11,2011-11-11 02:02:00,
2011-11-10 19:18:00,31.8,21.7,30.15,WSW,247,0.0,0.0,66,0.00,,,0.00,open2300-1.11,2011-11-11 02:18:00,
2011-11-10 19:33:00,31.8,22.5,30.16,WSW,247,0.0,0.0,68,0.00,,,0.00,open2300-1.11,2011-11-11 02:33:00,
2011-11-10 19:47:00,31.8,22.8,30.15,East,90,0.0,0.0,69,0.00,,,0.00,open2300-1.11,2011-11-11 02:47:00,
2011-11-10 20:03:00,32.2,23.5,30.15,ESE,112,0.0,0.0,70,0.00,,,0.00,open2300-1.11,2011-11-11 03:03:00,
2011-11-10 20:18:00,32.5,23.9,30.14,ESE,112,0.0,0.0,70,0.00,,,0.00,open2300-1.11,2011-11-11 03:18:00,
2011-11-10 20:34:00,32.2,23.9,30.15,ESE,112,0.0,2.0,71,0.00,,,0.00,open2300-1.11,2011-11-11 03:34:00,
2011-11-10 20:47:00,31.8,23.2,30.15,ESE,112,0.0,0.0,70,0.00,,,0.00,open2300-1.11,2011-11-11 03:47:00,
2011-11-10 21:02:00,31.3,23.0,30.15,ESE,112,0.0,0.0,71,0.00,,,0.00,open2300-1.11,2011-11-11 04:02:00,
2011-11-10 21:18:00,30.9,23.2,30.16,ESE,112,0.0,0.0,73,0.00,,,0.00,open2300-1.11,2011-11-11 04:18:00,
2011-11-10 21:33:00,31.6,24.3,30.16,SE,135,0.0,0.0,74,0.00,,,0.00,open2300-1.11,2011-11-11 04:33:00,
2011-11-10 21:47:00,31.6,24.3,30.15,East,90,0.9,4.7,74,0.00,,,0.00,open2300-1.11,2011-11-11 04:47:00,
2011-11-10 22:02:00,31.3,23.9,30.14,SE,135,0.0,1.8,74,0.00,,,0.00,open2300-1.11,2011-11-11 05:02:00,
2011-11-10 22:18:00,31.6,24.3,30.13,South,180,0.0,1.3,74,0.00,,,0.00,open2300-1.11,2011-11-11 05:18:00,
2011-11-10 22:32:00,31.8,24.5,30.13,SE,135,1.6,2.0,74,0.00,,,0.00,open2300-1.11,2011-11-11 05:32:00,
2011-11-10 22:47:00,32.0,24.7,30.13,NE,45,0.9,5.8,74,0.00,,,0.00,open2300-1.11,2011-11-11 05:47:00,
2011-11-10 23:48:00,30.2,22.5,30.13,East,90,2.5,2.5,73,0.00,,,0.00,open2300-1.11,2011-11-11 06:48:00,